Tracking 28790 objects as of 19-Apr-2024
HD Live streaming from Space Station
objects crossing your sky now

DELTA 2 R/B

Track DELTA 2 R/B now!
10-day predictions


NORAD ID: 36120
Int'l Code: 2009-071B
Perigee: 2,135.4 km
Apogee: 11,079.2 km
Inclination: 97.5 °
Period: 245.2 minutes
Semi major axis: 12978 km
RCS: 10.1206 m2 (large)
Launch date: December 14, 2009
Source: United States (US)
Launch site: AIR FORCE WESTERN TEST RANGE (AFWTR)

Note: This is a ROCKET BODY
Your satellite tracking list
Your tracking list is empty




NASA's NSSDC Master Catalog

Two Line Element Set (TLE):
1 36120U 09071B   24109.17435220 -.00000007  00000-0  00000-0 0  9997
2 36120  97.5330   3.9120 3445679 128.7982 267.4314  5.87189332307509
Source of the keplerian elements: AFSPC